www.pogodaiklimat.ru

Погода и климат >> Архив погоды >> Россия >> Якутия >> Томпо


ПОГОДА в Томпо

  • Прогноз погоды в Томпо
  • Монитор погоды в Томпо
  • Климат города

АРХИВ ПОГОДЫ в Томпо

Время (UTC), дата Ветер
(напр.,м/с)
 
Видим.   Явления Облачность Т
(С)
Тd
(С)
f
(%)
Тe
(С)
Тes
(С)
Комфортность P
(гПа)
Po
(гПа)
Тmin
(С)
Tmax
(С)
R
(мм)
R24
(мм)
S
(см)
21 18.06 С 1 50 км 8/3 1000 м
[Sc Ci fib]
+10.0 +7.9 87 +10 +12 1010.9 963.3 +7.2
00 19.06 штиль 0 50 км 3/0
[Ci fib]
+16.6 +9.8 64 +17 +28 1009.0 962.7
03 19.06 СЗ 1 50 км 6/5 600 м
[Cu med, cong Ci fib]
+21.0 +9.2 47 +24 +31 комфорт 1006.8 961.1
06 19.06 С 2 50 км 6/6 600 м
[Cu med, cong]
+24.4 +7.3 33 +25 +28 комфорт 1004.2 959.2
09 19.06 Ю 1 50 км 3/3 600 м
[Cu med, cong]
+25.1 +4.7 27 +25 +27 комфорт 1003.3 958.4 +25.6
12 19.06 штиль 0 50 км 9/8 600 м
[Cu Sc Ci fib]
+21.2 +7.0 40 +22 +22 комфорт 1004.3 958.8
15 19.06 штиль 0 50 км 6/4 1000 м
[Sc Ci fib]
+11.6 +6.8 72 +11 +11 1006.5 959.4
18 19.06 штиль 0 50 км 4/3 1000 м
[Sc Ci fib]
+10.4 +7.3 81 +10 +10 1007.4 960.2
21 19.06 штиль 0 50 км 3/3 1000 м
[Sc]
+6.4 +5.0 91 +5 +8 1009.3 961.1 +6.2
00 20.06 Ю 1 10 км дым 4/0
[Ac trans Ci fib]
+17.1 +6.6 50 +18 +27 1006.9 960.7
03 20.06 Ю 1 10 км дым 4/0
[Ac trans Ci fib]
+22.2 +7.1 38 +23 +36 комфорт 1004.5 959.1
06 20.06 Ю 1 10 км дым 8/3
[Cu hum Ci fib]
+23.8 +6.6 33 +24 +30 комфорт 1002.1 957.1
09 20.06 ЮВ 2 10 км дым 9/4 1000 м
[Sc Ac trans Ci fib]
+23.3 +3.3 27 +23 +24 комфорт 1002.3 957.1 +24.9
12 20.06 С 2 50 км 9/3 1000 м
[Sc Ac trans Ci fib]
+17.8 +9.2 57 +18 +18 1003.9 957.9
15 20.06 штиль 0 50 км 4/3 1000 м
[Sc Ci fib]
+10.2 +8.1 87 +9 +9 1005.9 958.6
18 20.06 штиль 0 50 км 6/4 1000 м
[Sc Ci fib]
+8.6 +6.9 89 +8 +8 1007.1 959.5
21 20.06 С 1 50 км 8/4 1000 м
[Sc Cc]
+11.2 +7.7 79 +11 +13 1006.8 959.6 +6.5
00 21.06 ЮВ 1 50 км 8/0
[Ac trans Ci fib]
+17.4 +8.2 55 +18 +25 1004.6 958.6
03 21.06 Ю 1 50 км 8/3 600 м
[Cu hum Ac trans Ci fib]
+22.8 +8.3 39 +24 +31 комфорт 1001.9 956.8
06 21.06 С 2
{14}
50 км 9/5 600 м
[Cb cap Ac trans Ci fib]
+20.1 +7.5 44 +22 +24 комфорт 1001.7 956.1
09 21.06 СВ 2 50 км 9/8 600 м
[Cb cap Ci fib]
+20.3 +11.3 56 +23 +23 комфорт 1001.3 955.9 +24.9
12 21.06 штиль 0 10 км дым 8/8 1000 м
[Sc]
+17.8 +9.9 60 +18 +18 1002.5 956.6
15 21.06 штиль 0 50 км 8/4 1000 м
[Sc Ci fib]
+10.6 +8.8 89 +10 +10 1004.4 957.3
18 21.06 штиль 0 50 км 6/4 1000 м
[Sc Ci fib]
+8.2 +6.7 90 +7 +7 1005.4 957.7
21 21.06 С 1 50 км 8/0
[Ci fib]
+9.9 +8.3 90 +9 +12 1005.9 958.6 +7.2
00 22.06 СЗ 1 50 км 8/0
[Ac trans Ci fib]
+17.2 +10.7 66 +18 +25 1004.2 958.2
03 22.06 Ю 2 10 км слабый ливневой дождь 9/9 600 м
[Cb cap]
+19.7 +10.5 55 +22 +23 комфорт 1004.3 958.6
06 22.06 ЮЗ 1 10 км слабый дождь {ливн. осадки} 10/10 1000 м
[Sc]
+17.0 +11.5 70 +18 +18 1006.8 960.7
09 22.06 ЮВ 1 10 км дым {дождь} 10/6 1000 м
[Sc Ac und]
+18.0 +11.2 64 +19 +20 1006.9 960.8 +21.4 0.3
12 22.06 штиль 0 10 км дым {дождь} 8/5 1000 м
[Sc Ac trans Ci fib]
+15.6 +11.9 79 +15 +15 1008.3 961.8
15 22.06 штиль 0 10 км дым 6/3 1000 м
[Sc Ci fib]
+8.7 +7.6 93 +8 +8 1010.9 963.1
18 22.06 штиль 0 10 км дым 4/3 1000 м
[Sc Ci fib]
+7.3 +6.2 93 +6 +6 1012.3 964.2
21 22.06 штиль 0 10 км дым 8/3 1000 м
[Sc Ac trans Ci fib]
+7.6 +5.6 87 +7 +9 1013.3 965.3 +6.3
00 23.06 штиль 0 10 км дым 9/0
[Ac trans]
+15.0 +10.5 74 +15 +21 1011.6 964.8
03 23.06 С 2 10 км дым 8/3 600 м
[Cu med, cong Ci fib]
+22.6 +7.5 38 +24 +31 комфорт 1008.6 963.1
06 23.06 СЗ 1 10 км дым 8/3 600 м
[Cu med, cong Ci fib]
+27.0 +8.8 32 +27 +34 жарко 1006.7 961.9
09 23.06 С 2 10 км дым 8/3 600 м
[Cu Sc Ci fib]
+26.2 +9.8 36 +27 +28 жарко 1006.1 961.3 +27.5
12 23.06 штиль 0 10 км дым 8/3 1000 м
[Sc Ci fib]
+20.1 +13.1 64 +22 +22 комфорт 1007.4 961.7
15 23.06 штиль 0 50 км 6/4 1000 м
[Sc Ci fib]
+11.7 +9.1 84 +11 +11 1009.5 962.3
18 23.06 штиль 0 50 км 4/3 1000 м
[Sc Ci fib]
+10.1 +7.8 86 +9 +9 1010.7 963.1
21 23.06 штиль 0 50 км 9/9 1000 м
[Sc]
+13.2 +9.9 80 +13 +13 1010.0 963.1 +9.9
00 24.06 ЮВ 1 50 км 8/3 1000 м
[Sc Ac trans Ci fib]
+18.4 +10.6 60 +20 +25 1008.5 962.5
03 24.06 Ю 2 10 км дым 6/3 600 м
[Cu med, cong Ci fib]
+25.9 +10.4 38 +27 +35 жарко 1005.5 960.7
06 24.06 Ю 1 10 км дым 8/5 600 м
[Cb cap Ci fib]
+27.0 +9.0 32 +27 +32 жарко 1003.8 959.1
09 24.06 ЮЗ 2 50 км гроза без осадков 9/5 600 м
[Cb cap Ac trans Ci fib]
+22.7 +11.3 49 +25 +26 комфорт 1004.9 959.6 +29.2
12 24.06 В 1 50 км {гроза} 8/3 1000 м
[Sc Ci fib]
+18.2 +11.7 66 +20 +20 1005.8 959.9
15 24.06 штиль 0 50 км 9/9 1000 м
[Sc]
+14.6 +9.8 73 +14 +14 1007.1 960.5
18 24.06 штиль 0 50 км 8/6 1000 м
[Sc Ci fib]
+12.5 +8.7 78 +12 +12 1008.0 961.0
21 24.06 штиль 0 50 км 3/1 1000 м
[Sc Ci fib]
+12.6 +10.5 87 +12 +15 1007.5 960.6 +9.8
00 25.06 ЮВ 2 50 км 3/0
[Ac trans]
+20.1 +12.3 61 +23 +30 комфорт 1005.2 959.6
03 25.06 ЮВ 3 50 км 4/0
[Ac trans Ci fib]
+24.6 +8.2 35 +25 +34 комфорт 1003.1 958.2
06 25.06 Ю 2 50 км ясно +26.6 +8.4 32 +27 +36 жарко 1001.1 956.6
09 25.06 Ю 1 50 км 1/0
[Ci fib]
+27.5 +9.5 32 +28 +31 жарко 999.6 955.3 +28.0
12 25.06 штиль 0 50 км ясно +23.6 +10.7 44 +25 +25 комфорт 1000.7 955.7
15 25.06 штиль 0 50 км ясно +12.4 +9.2 81 +12 +12 1002.8 956.1
18 25.06 штиль 0 50 км 4/3 1000 м
[Sc Ci fib]
+11.1 +8.5 84 +10 +11 1003.3 956.3

 

Местоположение метеостанции Томпо (Якутия, Россия): широта 63.95 долгота 135.80 высота над уровнем моря 402 м.

В архиве по умолчанию представлена погода в Томпо за последнюю неделю. Архивные данные за месяц целиком и за предыдущие месяцы, начиная с января 2011 года, Вы можете получить, выбрав интересующий диапазон дат из раскрывающегося списка и нажав кнопку "Ввод!".


*Определитесь, кто Вы:
робот инопланетянин человек

Внимание! Время в таблицах - всемирное. Для получения местного времени необходимо прибавить поправку, которая в Томпо равна 9 ч.

Смотрите также архив погоды в соседних городах и на ближайших метеорологических станциях:

Погода в Теплом Ключе (Якутия, Россия) (139 км)
Погода в Крест-Хальджае (Якутия, Россия) (144 км)
Погода в Иэме (Якутия, Россия) (150 км)
Погода в Верхоянском Перевозе (Якутия, Россия) (200 км)
Погода в Восточной (Якутия, Россия) (204 км)
Погода в Ытык-Кюёле (Якутия, Россия) (210 км)
Погода в Охотском Перевозе (Якутия, Россия) (232 км)
Погода в Чурапче (Якутия, Россия) (268 км)
Погода в Сеген-Кюели (Якутия, Россия) (268 км)
Погода в Юртах (Якутия, Россия) (293 км)

Пояснения к столбцам:

Ветер - указаны скорость ветра в м/с - средняя за 10 мин, порывы в срок и между сроками (в фигурных скобках) и направление, откуда дует ветер: С - северный, СВ - северо-восточный, В - восточный, ЮВ - юго-восточный, Ю - южный, ЮЗ - юго-западный, З - западный, СЗ - северо-западный.
Видимость - горизонтальная дальность видимости в метрах или километрах. При видимости от 1 до 10 км при отсутствии осадков обычно наблюдается дымка, при ухудшении видимости до 1 км и менее - туман. В сухую погоду видимость может ухудшаться дымом, пылью или мглою.
Явления - указаны атмосферные явления, наблюдавшиеся в срок или в последний час перед сроком; фигурными скобками обозначены явления, наблюдавшиеся между сроками (за 1-3 часа до срока); квадратными скобками обозначены град или гололедные отложения с указанием их диаметра в мм.
Облачность - указаны через наклонную черту общая и нижняя облачность в баллах и высота нижней границы облаков в метрах; квадратными скобками обозначены формы облаков: Ci - перистые, Cs - перисто-слоистые, Cc - перисто-кучевые, Ac - высококучевые, As - высокослоистые, Sc - слоисто-кучевые, Ns - слоисто-дождевые, Cu - кучевые, Cb - кучево-дождевые. Подробнее классификацию облаков см. в Атласе облаков (PDF).
T - Температура воздуха - температура, измеренная на высоте 2 м над землей.
Td - Температура точки росы - температура, при понижении до которой содержащийся в воздухе водяной пар достигнет насыщения.
f - Относительная влажность воздуха - влажноcть воздуха, измеренная на высоте 2 м над землей.
Te - Эффективная температура - температура, которую ощущает одетый по сезону человек в тени. Характеристика душности погоды. При расчете учитывается влияние влажности воздуха и скорости ветра на теплоощущения человека.
Tes - Эффективная температура на солнце - температура, которую ощущает человек, с поправкой на солнечный нагрев. Характеристика знойности погоды. Зависит от высоты солнца над горизонтом, облачности и скорости ветра. Ночью, в пасмурную погоду, а также при ветре 12 м/с и более поправка равна нулю.
P - Атмосферное давление - приведенное к уровню моря атмосферное давление.
Po - Атмосферное давление - измеренное на уровне метеостанции атмосферное давление.
Tmin - Минимальная температура - минимум температуры воздуха на высоте 2 м над землей.
Tmax - Максимальная температура - максимум температуры воздуха на высоте 2 м над землей.
R - Количество осадков - Количество выпавших осадков за период времени, мм. При наведении курсора мыши на число - период времени, за который выпало указанное количество осадков.
R24 - Количество осадков - Количество выпавших осадков за 24 часа, мм.
S - Снежный покров - Высота снежного покрова, см. При наведении курсора мыши на число - состояние снежного покрова и степень покрытия местности в баллах.